Погода в Шадринске

Хотите узнать прогноз погоды в Шадринске? Тогда Вам сюда: Погода в Шадринске

Поиск расширенной информации на нашем сайте:

Полезная информация:

Новости сайта



02.01.2020
Опубликован Долгосрочный прогноз погоды по городам России и ближнего зарубежья на январь 2020 года.
Карты: Прогноз на январь и февраль 2020 года, Сравнение прогнозируемой аномалии приземной температуры воздуха на январь 2020 года по разным моделям.




Погода в Шадринске - сегодня

Время (UTC), дата Ветер
(°,м/с) 
Видим.   Явления Облачность Т
(°С)
Тd
(°С)
f(%) Тe
(°С)
Pmin
(гПа)
dP
(гПа)
Po
(мм)
O2
(г/м3)
Тmin Tmax R s Состояние
почвы
12 16.04.21 030 (СВ) 3{10}  10 км  {ливн. осадки}  3/1 600 м верхняя 
[Sc|Ci sp]
+12.5 -9.1 21 +12  1024.4  0.2  760  294           
15 16.04.21 020 (С) 10 км    1/0 верхняя 
[Ci sp]
+9.3 -9.1 26 +9  1025.2  0.7  761  297    +12.9  0.0     
18 16.04.21 070 (В) 10 км    ясно 
+2.2 -6.7 52 +3  1026.5  761  305           
21 16.04.21 100 (В) 10 км    3/0 верхняя 
[Ci sp]
-1.4 -6.1 70 -1  1027.6  762  309           
00 17.04.21 080 (В) 10 км    ясно 
-3.1 -6 80 -3  1027.5  -0.2  762  311           
03 17.04.21 180 (Ю) 10 км    3/0 верхняя 
[Ci sp]
+3.8 -6.6 47 +5  1026.8  -0.4  762  303  -3.3        влажная 
06 17.04.21 210 (ЮЗ) 10 км    ясно 
+10.2 -7.3 28 +11  1025.1  -1.5  761  296           
09 17.04.21 250 (З) 10 км    ясно 
+12.9 -7.4 24 +13  1022.5  -2.4  759  293           
12 17.04.21 300 (СЗ) 4{11}  10 км    3/0 средняя, верхняя 
[Ac trans|Ci sp]
+14.1 -5.6 25 +14  1020.1  -2.3  757  291           
15 17.04.21 220 (ЮЗ) 10 км    3/0 верхняя 
[Ci sp]
+9.6 -4.9 36 +10  1018.6  -1.6  756  295    +14.4       
18 17.04.21 190 (Ю) 10 км    3/0 верхняя 
[Ci sp]
+4.6 -3.3 56 +5  1018.4  -0.4  755  300           
21 17.04.21 260 (З) 10 км    4/0 верхняя 
[Ci sp]
+1.6 -6.2 56 +2  1017.1  -1.4  754  303           
00 18.04.21 220 (ЮЗ) 10 км    3/0 верхняя 
[Ci sp]
+0.5 -5.4 65 1016  -1.2  754  304           
03 18.04.21 280 (З) 10 км    3/0 верхняя 
[Ci sp]
+6.9 -5.5 41 +7  1014.2  -1.4  752  296  +0.5        влажная 
06 18.04.21 340 (С) 7-12{17}  10 км    3/1 600 м верхняя 
[Sc|Ci sp]
+9.6 -5.9 33 +8  1015.1  753  294           
09 18.04.21 020 (С) 7-12{16}  10 км    6/4 600 м верхняя 
[Cu Sc|Ci sp]
+5.6 -9 34 +3  1020.9  5.5  757  300           
12 18.04.21 020 (С) 5-10{15}  10 км    3/1 600 м верхняя 
[Cu Sc|Ci sp]
+3.8 -12.7 29 +1  1024.8  3.8  760  303           
15 18.04.21 020 (С) 3{11}  10 км    ясно 
+1.5 -17.7 22 1027.3  2.4  762  307    +10.5       
18 18.04.21 020 (С) 10 км    ясно 
-1.8 -17.3 29 -1  1029.6  2.1  764  311           
21 18.04.21 020 (С) 10 км    ясно 
-3.6 -15.7 39 -5  1031.9  2.1  765  314           
00 19.04.21 020 (С) 10 км    ясно 
-5.7 -15.9 44 -5  1033.4  1.4  766  317           
03 19.04.21 050 (СВ) 10 км    ясно 
-3.4 -16.6 35 -3  1034.7  1.4  767  314  -6.3        влажная 
06 19.04.21 270 (З) 10 км    ясно 
+0.1 -17.4 25 -1  1033.9  -0.6  767  310           
09 19.04.21 300 (СЗ) 10 км    3/0 средняя, верхняя 
[Ac trans|Ci sp]
+3.3 -16.5 22 +2  1032.5  -1.3  766  306           
12 19.04.21 360 (С) 10 км    3/0 средняя, верхняя 
[Ac trans|Ci sp]
+5.3 -16.9 18 +4  1031.1  -1.3  765  304           
Время (UTC), дата Ветер
(°,м/с) 
Видим.   Явления Облачность Т
(°С)
Тd
(°С)
f(%) Тe
(°С)
Pmin
(гПа)
dP
(гПа)
Po
(мм)
O2
(г/м3)
Тmin Tmax R s Состояние
почвы

Для получения пояснительной информации подведите курсор к названию столбца.

ПОГОДА в Шадринске - архив

Всё, что Вы хотите узнать о погоде в Шадринске - удобно и подробно!

Выберите нужную дату (начиная с 1 января 2019* года) и нажмите кнопку "Найти".
Будут отображены архивные сводки погоды по пункту Шадринск, начиная с указанной даты.


Отображать данные в формате CSV (для использования в таблицах Excel)


Внимание! Наш архив погоды предназначен исключительно для личного некоммерческого использования в познавательных целях. Если Вам необходимы официальные справки о состоянии погоды (для производственных, юридических, коммерческих и т.п. целей), обращайтесь в органы Росгидромета.

*Примечание: данная дата относится к архиву по метеостанциям СССР (Россия, СНГ, Балтия).
Архив по метеостанциям Зарубежной Европы и Азии (кроме Китая) хранится 10 дней, по другим регионам земного шара (Китай, Африка, Америка, Австралия, Океания) - 1 день.

Шадринск - район местоположения метеостанции


Название, широта, долгота, высота метеостанции:
Шадринск 56.1°ш. 63.6°д. 89 м над ур. моря [Российская Федерация]

Дополнительная информация

В oтличие oт бoльшинства пoгoдных сайтoв мы публикуем пoдрoбную метеoинфoрмацию в детальнoм прoфессиoнальнoм фoрмате.

Характеристики температуры и влажнoсти вoздуха измеряются на высoте 2 м в тени вдали oт зданий и деревьев.
Скoрoсть ветра измеряется на высoте 10 м (на урoвне рoста челoвека скoрoсть ветра ниже в 1.5-2 раза). Если метеoстанция нахoдится в гoрoде или в лесу, тo скoрoсть ветра занижена на 2-4 м/с пo сравнению с oткрытым местoм. Скoрoсть ветра над акватoриями крупных рек и oзёр, а также на вершинах хoлмoв на 2-5 м/с выше, чем в oбычных услoвиях.
Атмoсфернoе давление в разных тoчках местнoсти мoжет значительнo oтличаться oт давления на метеoстанции, в зависимoсти oт услoвий рельефа (при пoдъёме на 10 м давление пoнижается примернo на 1 мм рт.ст.).